| time (UTC) | temp C | wind direction | speed KPH | gust KPH | rain 1hr cm | rain 24hr cm | rain mn cm | humidity % | barometer mb |
| 20260504033423 | 7 | 210 | 0.0 | 1.6 | 0.00 | 0.00 | 0.00 | 68 | 1012.3 |
| 20260504032913 | 7 | 210 | 0.0 | 1.6 | 0.00 | 0.00 | 0.00 | 67 | 1012.3 |
| 20260504032407 | 7 | 210 | 0.0 | 0.0 | 0.00 | 0.00 | 0.00 | 67 | 1012.3 |
| 20260504032349 | 7 | 210 | 0.0 | 0.0 | 0.00 | 0.00 | 0.00 | 65 | 1012.5 |
| 20260504031351 | 7 | 210 | 0.0 | 0.0 | 0.00 | 0.00 | 0.00 | 65 | 1012.3 |
| 20260504030844 | 7 | 210 | 0.0 | 0.0 | 0.00 | 0.00 | 0.00 | 65 | 1012.3 |
| 20260504030338 | 7 | 210 | 0.0 | 0.0 | 0.00 | 0.00 | 0.00 | 67 | 1012.2 |
| 20260504030308 | 7 | 210 | 0.0 | 0.0 | 0.00 | 0.00 | 0.00 | 67 | 1012.3 |
| 20260504025544 | 7 | 210 | 0.0 | 0.0 | 0.00 | 0.00 | 0.00 | 66 | 1012.2 |
| 20260504024817 | 7 | 210 | 0.0 | 0.0 | 0.00 | 0.00 | 0.00 | 64 | 1012.3 |
| 20260504024306 | 8 | 210 | 0.0 | 3.2 | 0.00 | 0.00 | 0.00 | 64 | 1012.2 |
| 20260504023800 | 8 | 210 | 0.0 | 3.2 | 0.00 | 0.00 | 0.00 | 63 | 1012.1 |
| 20260504023255 | 8 | 210 | 0.0 | 3.2 | 0.00 | 0.00 | 0.00 | 62 | 1012.2 |
| 20260504022745 | 8 | 210 | 0.0 | 3.2 | 0.00 | 0.00 | 0.00 | 62 | 1012.2 |
| 20260504022239 | 8 | 210 | 0.0 | 1.6 | 0.00 | 0.00 | 0.00 | 61 | 1012.2 |
| 20260504021733 | 8 | 210 | 0.0 | 1.6 | 0.00 | 0.00 | 0.00 | 61 | 1012.2 |
| 20260504021223 | 8 | 210 | 0.0 | 1.6 | 0.00 | 0.00 | 0.00 | 60 | 1012.2 |
| 20260504020717 | 8 | 210 | 0.0 | 1.6 | 0.00 | 0.00 | 0.00 | 59 | 1012.2 |
| 20260504020209 | 8 | 210 | 0.0 | 1.6 | 0.00 | 0.00 | 0.00 | 59 | 1012.2 |
| 20260504015700 | 8 | 210 | 0.0 | 1.6 | 0.00 | 0.00 | 0.00 | 58 | 1012.2 |
| 20260504015155 | 8 | 210 | 0.0 | 1.6 | 0.00 | 0.00 | 0.00 | 57 | 1012.2 |
| 20260504014648 | 9 | 210 | 0.0 | 1.6 | 0.00 | 0.00 | 0.00 | 56 | 1012.1 |
| 20260504014144 | 9 | 210 | 0.0 | 1.6 | 0.00 | 0.00 | 0.00 | 56 | 1012.0 |
| 20260504013644 | 9 | 210 | 0.0 | 1.6 | 0.00 | 0.00 | 0.00 | 55 | 1012.0 |
| 20260504013143 | 9 | 210 | 0.0 | 1.6 | 0.00 | 0.00 | 0.00 | 55 | 1011.9 |
| 20260504012641 | 10 | 210 | 0.0 | 1.6 | 0.00 | 0.00 | 0.00 | 55 | 1011.9 |
| 20260504012153 | 10 | 210 | 0.0 | 0.0 | 0.00 | 0.00 | 0.00 | 53 | 1011.9 |
| 20260504011654 | 10 | 210 | 0.0 | 0.0 | 0.00 | 0.00 | 0.00 | 51 | 1011.8 |
| 20260504011140 | 10 | 210 | 0.0 | 3.2 | 0.00 | 0.00 | 0.00 | 51 | 1011.8 |
| 20260504010640 | 10 | 210 | 0.0 | 3.2 | 0.00 | 0.00 | 0.00 | 50 | 1011.8 |
| 20260504010136 | 11 | 210 | 0.0 | 3.2 | 0.00 | 0.00 | 0.00 | 49 | 1011.6 |
| 20260504005634 | 11 | 210 | 0.0 | 3.2 | 0.00 | 0.00 | 0.00 | 49 | 1011.6 |
| 20260504005132 | 11 | 210 | 0.0 | 1.6 | 0.00 | 0.00 | 0.00 | 47 | 1011.6 |
| 20260504004630 | 11 | 210 | 0.0 | 1.6 | 0.00 | 0.00 | 0.00 | 46 | 1011.5 |
| 20260504004130 | 12 | 210 | 0.0 | 0.0 | 0.00 | 0.00 | 0.00 | 45 | 1011.4 |
| 20260504003630 | 12 | 210 | 0.0 | 0.0 | 0.00 | 0.00 | 0.00 | 45 | 1011.4 |
| 20260504003132 | 12 | 210 | 0.0 | 1.6 | 0.00 | 0.00 | 0.00 | 43 | 1011.3 |
| 20260504002629 | 12 | 210 | 0.0 | 1.6 | 0.00 | 0.00 | 0.00 | 42 | 1011.2 |
| 20260504002123 | 12 | 210 | 0.0 | 1.6 | 0.00 | 0.00 | 0.00 | 41 | 1011.1 |
| 20260504001617 | 13 | 210 | 0.0 | 4.8 | 0.00 | 0.00 | 0.00 | 40 | 1011.0 |
| 20260504001113 | 13 | 210 | 0.0 | 4.8 | 0.00 | 0.00 | 0.00 | 39 | 1010.9 |
| 20260504000610 | 13 | 210 | 0.0 | 4.8 | 0.00 | 0.00 | 0.00 | 39 | 1010.9 |
| 20260504000112 | 13 | 210 | 0.0 | 4.8 | 0.00 | 0.00 | 0.00 | 38 | 1010.8 |
| 20260503235839 | 13 | 195 | 0.0 | 3.2 | 0.00 | 0.00 | 0.00 | 38 | 1010.8 |
| 20260503235338 | 13 | 195 | 0.0 | 4.8 | 0.00 | 0.00 | 0.00 | 37 | 1010.7 |
| 20260503234607 | 13 | 197 | 0.0 | 4.8 | 0.00 | 0.00 | 0.00 | 38 | 1010.6 |
| 20260503234106 | 13 | 205 | 0.0 | 3.2 | 0.00 | 0.00 | 0.00 | 37 | 1010.6 |
| 20260503233603 | 14 | 205 | 0.0 | 3.2 | 0.00 | 0.00 | 0.00 | 37 | 1010.6 |
| 20260503233102 | 14 | 205 | 0.0 | 3.2 | 0.00 | 0.00 | 0.00 | 36 | 1010.5 |
| 20260503232603 | 14 | 205 | 0.0 | 3.2 | 0.00 | 0.00 | 0.00 | 35 | 1010.5 |
| 20260503232104 | 14 | 205 | 0.0 | 9.7 | 0.00 | 0.00 | 0.00 | 36 | 1010.5 |
| 20260503231604 | 14 | 205 | 1.6 | 9.7 | 0.00 | 0.00 | 0.00 | 35 | 1010.4 |
| 20260503231104 | 15 | 146 | 1.6 | 9.7 | 0.00 | 0.00 | 0.00 | 35 | 1010.4 |
| 20260503230617 | 15 | 115 | 1.6 | 9.7 | 0.00 | 0.00 | 0.00 | 34 | 1010.3 |
| 20260503230108 | 15 | 223 | 1.6 | 11.3 | 0.00 | 0.00 | 0.00 | 34 | 1010.3 |
| 20260503225600 | 15 | 205 | 0.0 | 11.3 | 0.00 | 0.00 | 0.00 | 34 | 1010.3 |
| 20260503225057 | 15 | 213 | 1.6 | 11.3 | 0.00 | 0.00 | 0.00 | 34 | 1010.2 |
| 20260503224556 | 15 | 211 | 1.6 | 11.3 | 0.00 | 0.00 | 0.00 | 33 | 1010.2 |
| 20260503224054 | 15 | 105 | 1.6 | 11.3 | 0.00 | 0.00 | 0.00 | 34 | 1010.1 |
| 20260503223552 | 15 | 55 | 1.6 | 9.7 | 0.00 | 0.00 | 0.00 | 33 | 1010.1 |
| 20260503223532 | 15 | 64 | 1.6 | 12.9 | 0.00 | 0.00 | 0.00 | 34 | 1010.1 |
| 20260503222551 | 15 | 142 | 1.6 | 12.9 | 0.00 | 0.00 | 0.00 | 33 | 1010.1 |
| 20260503222051 | 15 | 69 | 3.2 | 11.3 | 0.00 | 0.00 | 0.00 | 33 | 1010.2 |
| 20260503221551 | 15 | 213 | 3.2 | 14.5 | 0.00 | 0.00 | 0.00 | 32 | 1010.1 |
| 20260503221051 | 15 | 52 | 3.2 | 14.5 | 0.00 | 0.00 | 0.00 | 33 | 1010.3 |
| 20260503220814 | 15 | 207 | 4.8 | 14.5 | 0.00 | 0.00 | 0.00 | 32 | 1010.2 |
| 20260503215550 | 15 | 59 | 3.2 | 11.3 | 0.00 | 0.00 | 0.00 | 33 | 1010.1 |
| 20260503215309 | 15 | 205 | 1.6 | 11.3 | 0.00 | 0.00 | 0.00 | 32 | 1010.3 |
| 20260503214548 | 15 | 204 | 3.2 | 11.3 | 0.00 | 0.00 | 0.00 | 33 | 1010.1 |
| 20260503214049 | 15 | 180 | 3.2 | 11.3 | 0.00 | 0.00 | 0.00 | 32 | 1010.2 |
| 20260503213545 | 15 | 57 | 3.2 | 19.3 | 0.00 | 0.00 | 0.00 | 33 | 1010.2 |
| 20260503213044 | 15 | 69 | 3.2 | 19.3 | 0.00 | 0.00 | 0.00 | 32 | 1010.1 |
| 20260503212815 | 15 | 43 | 4.8 | 19.3 | 0.00 | 0.00 | 0.00 | 33 | 1010.0 |
| 20260503212044 | 15 | 85 | 4.8 | 19.3 | 0.00 | 0.00 | 0.00 | 32 | 1010.0 |
| 20260503211544 | 15 | 106 | 4.8 | 16.1 | 0.00 | 0.00 | 0.00 | 34 | 1010.0 |
| 20260503211044 | 15 | 65 | 3.2 | 16.1 | 0.00 | 0.00 | 0.00 | 32 | 1010.0 |
| 20260503210545 | 15 | 182 | 3.2 | 14.5 | 0.00 | 0.00 | 0.00 | 35 | 1010.1 |
| 20260503210044 | 15 | 74 | 3.2 | 22.5 | 0.00 | 0.00 | 0.00 | 32 | 1010.0 |
| 20260503205546 | 14 | 184 | 3.2 | 22.5 | 0.00 | 0.00 | 0.00 | 36 | 1010.0 |
| 20260503205045 | 14 | 194 | 4.8 | 22.5 | 0.00 | 0.00 | 0.00 | 33 | 1010.1 |
| 20260503204545 | 14 | 109 | 4.8 | 22.5 | 0.00 | 0.00 | 0.00 | 35 | 1009.9 |
| 20260503204045 | 14 | 173 | 3.2 | 17.7 | 0.00 | 0.00 | 0.00 | 34 | 1010.1 |
| 20260503203546 | 15 | 187 | 4.8 | 17.7 | 0.00 | 0.00 | 0.00 | 32 | 1010.0 |
| 20260503203045 | 15 | 173 | 4.8 | 20.9 | 0.00 | 0.00 | 0.00 | 34 | 1010.1 |
| 20260503202544 | 15 | 206 | 4.8 | 22.5 | 0.00 | 0.00 | 0.00 | 34 | 1010.1 |
| 20260503202046 | 14 | 79 | 4.8 | 22.5 | 0.00 | 0.00 | 0.00 | 36 | 1010.2 |
| 20260503201546 | 14 | 192 | 4.8 | 22.5 | 0.00 | 0.00 | 0.00 | 36 | 1010.1 |
| 20260503201044 | 14 | 105 | 3.2 | 22.5 | 0.00 | 0.00 | 0.00 | 36 | 1010.4 |
| 20260503200544 | 14 | 67 | 3.2 | 19.3 | 0.00 | 0.00 | 0.00 | 35 | 1010.2 |
| 20260503200044 | 14 | 215 | 4.8 | 19.3 | 0.00 | 0.00 | 0.00 | 36 | 1010.3 |
| 20260503195545 | 14 | 94 | 3.2 | 19.3 | 0.00 | 0.00 | 0.00 | 34 | 1010.4 |
| 20260503195044 | 14 | 150 | 3.2 | 11.3 | 0.00 | 0.00 | 0.00 | 34 | 1010.5 |
| 20260503194544 | 14 | 200 | 4.8 | 17.7 | 0.00 | 0.00 | 0.00 | 34 | 1010.6 |
| 20260503194313 | 14 | 29 | 3.2 | 17.7 | 0.00 | 0.00 | 0.00 | 35 | 1010.6 |
| 20260503193811 | 14 | 206 | 3.2 | 12.9 | 0.00 | 0.00 | 0.00 | 35 | 1010.5 |
| 20260503193300 | 14 | 162 | 4.8 | 16.1 | 0.00 | 0.00 | 0.00 | 36 | 1010.5 |
| 20260503192544 | 14 | 221 | 4.8 | 17.7 | 0.00 | 0.00 | 0.00 | 38 | 1010.9 |
| 20260503192236 | 14 | 58 | 4.8 | 17.7 | 0.00 | 0.00 | 0.00 | 39 | 1010.9 |
| 20260503192126 | 15 | 38 | 4.8 | 17.7 | 0.00 | 0.00 | 0.00 | 36 | 1010.6 |
| 20260503191638 | 15 | 153 | 4.8 | 17.7 | 0.00 | 0.00 | 0.00 | 35 | 1010.9 |
| 20260503190543 | 14 | 51 | 3.2 | 17.7 | 0.00 | 0.00 | 0.00 | 35 | 1010.8 |
| 20260503190042 | 14 | 26 | 4.8 | 14.5 | 0.00 | 0.00 | 0.00 | 38 | 1011.0 |
| 20260503185542 | 14 | 69 | 4.8 | 16.1 | 0.00 | 0.00 | 0.00 | 38 | 1011.0 |
| 20260503185044 | 14 | 28 | 3.2 | 16.1 | 0.00 | 0.00 | 0.00 | 37 | 1011.1 |
| 20260503184542 | 14 | 63 | 3.2 | 16.1 | 0.00 | 0.00 | 0.00 | 41 | 1011.1 |
| 20260503184041 | 13 | 45 | 4.8 | 16.1 | 0.00 | 0.00 | 0.00 | 40 | 1011.1 |
| 20260503183542 | 13 | 172 | 4.8 | 16.1 | 0.00 | 0.00 | 0.00 | 37 | 1011.2 |
| 20260503183040 | 13 | 207 | 4.8 | 16.1 | 0.00 | 0.00 | 0.00 | 39 | 1011.2 |
| 20260503182609 | 13 | 215 | 3.2 | 16.1 | 0.00 | 0.00 | 0.00 | 39 | 1011.0 |
| 20260503182554 | 13 | 195 | 4.8 | 16.1 | 0.00 | 0.00 | 0.00 | 38 | 1011.1 |
| 20260503181539 | 13 | 45 | 3.2 | 14.5 | 0.00 | 0.00 | 0.00 | 41 | 1011.1 |
| 20260503181040 | 13 | 5 | 4.8 | 14.5 | 0.00 | 0.00 | 0.00 | 40 | 1011.1 |
| 20260503180534 | 13 | 150 | 4.8 | 14.5 | 0.00 | 0.00 | 0.00 | 39 | 1011.3 |
| 20260503180025 | 13 | 91 | 4.8 | 17.7 | 0.00 | 0.00 | 0.00 | 40 | 1011.2 |
| 20260503175518 | 13 | 242 | 4.8 | 17.7 | 0.00 | 0.00 | 0.00 | 41 | 1011.1 |
| 20260503175239 | 13 | 234 | 3.2 | 17.7 | 0.00 | 0.00 | 0.00 | 43 | 1011.3 |
| 20260503174502 | 12 | 187 | 3.2 | 17.7 | 0.00 | 0.00 | 0.00 | 42 | 1011.3 |
| 20260503174223 | 12 | 178 | 4.8 | 19.3 | 0.00 | 0.00 | 0.00 | 45 | 1011.5 |
| 20260503173711 | 12 | 205 | 4.8 | 19.3 | 0.00 | 0.00 | 0.00 | 46 | 1011.4 |
| 20260503172940 | 11 | 155 | 4.8 | 16.1 | 0.00 | 0.00 | 0.00 | 45 | 1011.6 |
| 20260503172433 | 12 | 137 | 4.8 | 17.7 | 0.00 | 0.00 | 0.00 | 46 | 1011.6 |
| 20260503171928 | 11 | 198 | 4.8 | 17.7 | 0.00 | 0.00 | 0.00 | 44 | 1011.6 |
| 20260503171418 | 11 | 175 | 4.8 | 17.7 | 0.00 | 0.00 | 0.00 | 43 | 1011.6 |
| 20260503171359 | 11 | 31 | 4.8 | 20.9 | 0.00 | 0.00 | 0.00 | 44 | 1011.7 |
| 20260503170406 | 11 | 70 | 4.8 | 20.9 | 0.00 | 0.00 | 0.00 | 45 | 1011.7 |
| 20260503150616 | 10 | 39 | 4.8 | 19.3 | 0.00 | 0.00 | 0.00 | 44 | 1012.1 |
| 20260503150117 | 10 | 57 | 4.8 | 19.3 | 0.00 | 0.00 | 0.00 | 43 | 1012.1 |
| 20260503131336 | 9 | 87 | 4.8 | 16.1 | 0.00 | 0.00 | 0.00 | 55 | 1012.1 |
| 20260503130825 | 9 | 77 | 3.2 | 16.1 | 0.00 | 0.00 | 0.00 | 56 | 1012.0 |
| 20260503130320 | 9 | 195 | 3.2 | 14.5 | 0.00 | 0.00 | 0.00 | 58 | 1012.1 |
| 20260503110629 | 6 | 200 | 3.2 | 17.7 | 0.00 | 0.00 | 0.00 | 64 | 1011.5 |
| 20260503110141 | 6 | 70 | 3.2 | 17.7 | 0.00 | 0.00 | 0.00 | 64 | 1011.4 |
| 20260503100119 | 6 | 64 | 1.6 | 8.0 | 0.00 | 0.00 | 0.00 | 62 | 1010.8 |
| 20260503081111 | 7 | 66 | 1.6 | 8.0 | 0.00 | 0.00 | 0.00 | 59 | 1010.8 |
| 20260503080612 | 7 | 28 | 3.2 | 8.0 | 0.00 | 0.00 | 0.00 | 59 | 1010.7 |
| 20260503080117 | 7 | 44 | 1.6 | 8.0 | 0.00 | 0.00 | 0.00 | 59 | 1010.7 |
| 20260503072613 | 7 | 86 | 0.0 | 4.8 | 0.00 | 0.00 | 0.00 | 58 | 1010.5 |
| 20260503072105 | 7 | 86 | 0.0 | 4.8 | 0.00 | 0.00 | 0.00 | 59 | 1010.3 |
| 20260503071557 | 7 | 86 | 0.0 | 4.8 | 0.00 | 0.00 | 0.00 | 58 | 1010.4 |
| 20260503071051 | 7 | 86 | 0.0 | 4.8 | 0.00 | 0.00 | 0.00 | 58 | 1010.4 |
| 20260503070545 | 7 | 179 | 0.0 | 3.2 | 0.00 | 0.00 | 0.00 | 58 | 1010.5 |
| 20260503054854 | 8 | 86 | 1.6 | 9.7 | 0.00 | 0.00 | 0.00 | 52 | 1010.8 |
| 20260503054344 | 8 | 105 | 3.2 | 11.3 | 0.00 | 0.00 | 0.00 | 51 | 1010.8 |
| 20260503053839 | 8 | 205 | 1.6 | 11.3 | 0.00 | 0.00 | 0.00 | 51 | 1010.9 |
| 20260503053331 | 8 | 81 | 1.6 | 8.0 | 0.00 | 0.00 | 0.00 | 51 | 1011.0 |
| 20260503053053 | 8 | 85 | 1.6 | 12.9 | 0.00 | 0.00 | 0.00 | 51 | 1010.9 |
| 20260503052314 | 8 | 30 | 3.2 | 12.9 | 0.00 | 0.00 | 0.00 | 51 | 1011.0 |
| 20260503051808 | 8 | 98 | 3.2 | 12.9 | 0.00 | 0.00 | 0.00 | 50 | 1011.1 |
| 20260503051259 | 8 | 295 | 3.2 | 12.9 | 0.00 | 0.00 | 0.00 | 50 | 1011.2 |
| 20260503050753 | 8 | 81 | 1.6 | 8.0 | 0.00 | 0.00 | 0.00 | 50 | 1011.1 |
| 20260503050247 | 8 | 82 | 1.6 | 6.4 | 0.00 | 0.00 | 0.00 | 50 | 1011.0 |
| 20260503045737 | 9 | 49 | 1.6 | 6.4 | 0.00 | 0.00 | 0.00 | 50 | 1011.1 |
| 20260503045231 | 9 | 47 | 1.6 | 6.4 | 0.00 | 0.00 | 0.00 | 50 | 1011.1 |
| 20260503044724 | 9 | 111 | 1.6 | 4.8 | 0.00 | 0.00 | 0.00 | 50 | 1011.2 |
| 20260503044214 | 9 | 82 | 1.6 | 9.7 | 0.00 | 0.00 | 0.00 | 49 | 1011.2 |
| 20260503043709 | 9 | 82 | 1.6 | 9.7 | 0.00 | 0.00 | 0.00 | 49 | 1011.3 |
| 20260503043204 | 9 | 42 | 3.2 | 12.9 | 0.00 | 0.00 | 0.00 | 48 | 1011.3 |
| 20260503042653 | 9 | 84 | 1.6 | 12.9 | 0.00 | 0.00 | 0.00 | 48 | 1011.4 |
| 20260503042147 | 9 | 46 | 0.0 | 4.8 | 0.00 | 0.00 | 0.00 | 48 | 1011.3 |
| 20260503041641 | 9 | 46 | 0.0 | 4.8 | 0.00 | 0.00 | 0.00 | 48 | 1011.4 |
| 20260503041131 | 9 | 51 | 1.6 | 4.8 | 0.00 | 0.00 | 0.00 | 49 | 1011.4 |
| 20260503040851 | 9 | 51 | 1.6 | 4.8 | 0.00 | 0.00 | 0.00 | 48 | 1011.3 |
| 20260503040132 | 10 | 90 | 1.6 | 4.8 | 0.00 | 0.00 | 0.00 | 48 | 1011.2 |
| 20260503035609 | 10 | 183 | 1.6 | 6.4 | 0.00 | 0.00 | 0.00 | 48 | 1011.2 |
| 20260503035102 | 10 | 184 | 1.6 | 6.4 | 0.00 | 0.00 | 0.00 | 47 | 1011.2 |
| 20260503034821 | 10 | 195 | 1.6 | 11.3 | 0.00 | 0.00 | 0.00 | 48 | 1011.3 |
| 20260503034047 | 10 | 52 | 0.0 | 11.3 | 0.00 | 0.00 | 0.00 | 48 | 1011.1 |